DAL2525 KELP-KDAL

Flight info

Callsign DAL2525
Flight time 2h 7m
Altitude 15000
Route SFL
Aircraft DC6/M-SDE1FGHIRWXY/S

Departure

Time 2026-04-20 09:33
Airport El Paso International Airport (KELP)

Arrival

Time 2026-04-20 11:40
Airport Dallas Love Field (KDAL)
Time Latitude Longitude Altitude Speed Heading
2026-04-20 09:18 31.80078 -106.39262 3932 ft 0 kts 230°
2026-04-20 09:25 31.80084 -106.39253 3932 ft 3 kts 229°
2026-04-20 09:25 31.80098 -106.39235 3932 ft 3 kts 223°
2026-04-20 09:26 31.80113 -106.39221 3932 ft 3 kts 206°
2026-04-20 09:26 31.80129 -106.39215 3932 ft 3 kts 158°
2026-04-20 09:26 31.80135 -106.39219 3933 ft 0 kts 133°
2026-04-20 09:29 31.80130 -106.39212 3932 ft 5 kts 132°
2026-04-20 09:29 31.80080 -106.39147 3932 ft 13 kts 134°
2026-04-20 09:29 31.80023 -106.39080 3934 ft 10 kts 134°
2026-04-20 09:29 31.79993 -106.39027 3935 ft 6 kts 106°
2026-04-20 09:30 31.79987 -106.38976 3936 ft 8 kts 93°
2026-04-20 09:30 31.79990 -106.38883 3937 ft 15 kts 75°
2026-04-20 09:30 31.80080 -106.38784 3935 ft 22 kts
2026-04-20 09:30 31.80206 -106.38756 3934 ft 9 kts 48°
2026-04-20 09:31 31.80213 -106.38732 3935 ft 0 kts 94°
2026-04-20 09:32 31.80210 -106.38698 3936 ft 23 kts 97°
2026-04-20 09:32 31.80179 -106.38262 3944 ft 82 kts 93°
2026-04-20 09:32 31.80137 -106.37414 4023 ft 118 kts 92°
2026-04-20 09:32 31.80110 -106.36376 4233 ft 137 kts 92°
2026-04-20 09:33 31.80059 -106.35166 4425 ft 158 kts 93°
2026-04-20 09:33 31.79988 -106.33783 4635 ft 179 kts 94°
2026-04-20 09:33 31.79823 -106.32276 4919 ft 195 kts 101°
2026-04-20 09:33 31.79654 -106.30651 5081 ft 207 kts 86°
2026-04-20 09:34 31.80166 -106.29046 5222 ft 217 kts 55°
2026-04-20 09:34 31.81313 -106.27891 5398 ft 220 kts 29°
2026-04-20 09:34 31.83414 -106.25408 5743 ft 224 kts 70°
2026-04-20 09:35 31.83564 -106.23591 5927 ft 226 kts 97°
2026-04-20 09:35 31.83103 -106.21827 6139 ft 225 kts 111°
2026-04-20 09:35 31.82636 -106.20074 6347 ft 226 kts 102°
2026-04-20 09:35 31.82477 -106.18239 6557 ft 226 kts 92°
2026-04-20 09:36 31.82409 -106.16388 6771 ft 227 kts 93°
2026-04-20 09:36 31.82293 -106.14551 6984 ft 228 kts 95°
2026-04-20 09:36 31.82160 -106.12688 7200 ft 229 kts 95°
2026-04-20 09:36 31.82036 -106.10820 7414 ft 230 kts 94°
2026-04-20 09:37 31.81911 -106.08942 7635 ft 230 kts 94°
2026-04-20 09:37 31.81786 -106.07062 7851 ft 231 kts 94°
2026-04-20 09:37 31.81659 -106.05178 8069 ft 232 kts 94°
2026-04-20 09:37 31.81532 -106.03289 8289 ft 232 kts 94°
2026-04-20 09:38 31.81405 -106.01394 8501 ft 233 kts 94°
2026-04-20 09:38 31.81276 -105.99490 8718 ft 233 kts 94°
2026-04-20 09:38 31.81147 -105.97582 8935 ft 234 kts 94°
2026-04-20 09:38 31.81016 -105.95651 8998 ft 241 kts 95°
2026-04-20 09:39 31.80883 -105.93700 9010 ft 243 kts 94°
2026-04-20 09:39 31.80749 -105.91717 9003 ft 242 kts 95°
2026-04-20 09:39 31.80614 -105.89744 9000 ft 242 kts 94°
2026-04-20 09:39 31.80479 -105.87770 9000 ft 243 kts 95°
2026-04-20 09:40 31.80343 -105.85790 9001 ft 243 kts 95°
2026-04-20 09:40 31.80206 -105.83805 9003 ft 244 kts 95°
2026-04-20 09:40 31.80068 -105.81811 9008 ft 244 kts 95°
2026-04-20 09:40 31.79931 -105.79818 9008 ft 245 kts 95°
2026-04-20 09:41 31.79793 -105.77823 9005 ft 245 kts 95°
2026-04-20 09:41 31.79655 -105.75827 9006 ft 245 kts 95°
2026-04-20 09:41 31.79515 -105.73830 9016 ft 245 kts 95°
2026-04-20 09:41 31.79377 -105.71831 9010 ft 245 kts 95°
2026-04-20 09:42 31.79237 -105.69832 9003 ft 245 kts 95°
2026-04-20 09:42 31.79097 -105.67835 9004 ft 245 kts 95°
2026-04-20 09:42 31.78956 -105.65838 9003 ft 245 kts 95°
2026-04-20 09:42 31.78817 -105.63839 9003 ft 245 kts 95°
2026-04-20 09:43 31.78675 -105.61842 9003 ft 245 kts 95°
2026-04-20 09:43 31.78534 -105.59841 9003 ft 245 kts 95°
2026-04-20 09:43 31.78394 -105.57872 9011 ft 245 kts 95°
2026-04-20 09:43 31.78253 -105.55876 9007 ft 245 kts 95°
2026-04-20 09:44 31.78111 -105.53880 9009 ft 245 kts 95°
2026-04-20 09:44 31.77966 -105.51860 9007 ft 245 kts 95°
2026-04-20 09:44 31.77827 -105.49890 9003 ft 245 kts 95°
2026-04-20 09:44 31.77683 -105.47896 9003 ft 245 kts 95°
2026-04-20 09:45 31.77541 -105.45903 9003 ft 245 kts 95°
2026-04-20 09:45 31.77397 -105.43909 9003 ft 245 kts 95°
2026-04-20 09:45 31.77254 -105.41916 9003 ft 245 kts 95°
2026-04-20 09:45 31.77109 -105.39919 9003 ft 245 kts 95°
2026-04-20 09:46 31.76965 -105.37926 9003 ft 245 kts 95°
2026-04-20 09:46 31.76820 -105.35933 9003 ft 245 kts 95°
2026-04-20 09:46 31.76676 -105.33941 9003 ft 245 kts 95°
2026-04-20 09:46 31.76530 -105.31947 9003 ft 245 kts 95°
2026-04-20 09:47 31.76385 -105.29954 9007 ft 245 kts 95°
2026-04-20 09:47 31.76238 -105.27957 9006 ft 245 kts 95°
2026-04-20 09:47 31.76093 -105.25965 9011 ft 245 kts 95°
2026-04-20 09:47 31.75946 -105.23974 9009 ft 245 kts 95°
2026-04-20 09:48 31.75799 -105.21977 9004 ft 245 kts 95°
2026-04-20 09:48 31.75653 -105.20005 9004 ft 245 kts 95°
2026-04-20 09:48 31.75507 -105.18013 9004 ft 245 kts 95°
2026-04-20 09:48 31.75358 -105.16021 9004 ft 245 kts 95°
2026-04-20 09:49 31.75211 -105.14029 9016 ft 245 kts 95°
2026-04-20 09:49 31.75062 -105.12037 9008 ft 245 kts 95°
2026-04-20 09:49 31.74913 -105.10042 9009 ft 245 kts 95°
2026-04-20 09:49 31.74873 -105.08056 8984 ft 243 kts 83°
2026-04-20 09:50 31.75203 -105.06113 8997 ft 242 kts 77°
2026-04-20 09:50 31.75577 -105.04177 8998 ft 243 kts 78°
2026-04-20 09:50 31.75901 -105.02225 8999 ft 243 kts 79°
2026-04-20 09:50 31.76218 -105.00273 9000 ft 243 kts 79°
2026-04-20 09:51 31.76543 -104.98317 9001 ft 244 kts 79°
2026-04-20 09:51 31.76871 -104.96361 9002 ft 244 kts 79°
2026-04-20 09:51 31.77192 -104.94429 9002 ft 244 kts 79°
2026-04-20 09:51 31.77518 -104.92472 9003 ft 244 kts 79°
2026-04-20 09:52 31.77843 -104.90511 9002 ft 244 kts 79°
2026-04-20 09:52 31.78169 -104.88551 9003 ft 244 kts 79°
2026-04-20 09:52 31.78383 -104.87254 9003 ft 245 kts 79°
2026-04-20 09:52 31.78820 -104.84628 9003 ft 245 kts 79°
2026-04-20 09:53 31.79034 -104.83330 9003 ft 245 kts 79°
2026-04-20 09:53 31.79359 -104.81362 9003 ft 245 kts 79°
2026-04-20 09:53 31.79685 -104.79398 9003 ft 245 kts 79°
2026-04-20 09:53 31.80008 -104.77432 9003 ft 245 kts 79°
2026-04-20 09:54 31.80332 -104.75465 9003 ft 245 kts 79°
2026-04-20 09:54 31.80657 -104.73497 9014 ft 245 kts 79°
2026-04-20 09:54 31.80981 -104.71528 9003 ft 245 kts 79°
2026-04-20 09:54 31.81305 -104.69556 9010 ft 245 kts 79°
2026-04-20 09:55 31.81627 -104.67588 9004 ft 245 kts 79°
2026-04-20 09:55 31.81952 -104.65616 9017 ft 245 kts 79°
2026-04-20 09:55 31.82274 -104.63648 9004 ft 245 kts 79°
2026-04-20 09:55 31.82596 -104.61680 9003 ft 245 kts 79°
2026-04-20 09:56 31.82918 -104.59713 9010 ft 245 kts 79°
2026-04-20 09:56 31.83240 -104.57744 9008 ft 245 kts 79°
2026-04-20 09:56 31.83556 -104.55801 9004 ft 245 kts 79°
2026-04-20 09:56 31.83878 -104.53830 9004 ft 245 kts 79°
2026-04-20 09:57 31.84199 -104.51862 9013 ft 245 kts 79°
2026-04-20 09:57 31.84521 -104.49890 9004 ft 245 kts 79°
2026-04-20 09:57 31.84839 -104.47923 9007 ft 245 kts 79°
2026-04-20 09:57 31.85160 -104.45953 9007 ft 245 kts 79°
2026-04-20 09:58 31.85478 -104.43991 9003 ft 245 kts 79°
2026-04-20 09:58 31.85796 -104.42026 9008 ft 245 kts 79°
2026-04-20 09:58 31.86116 -104.40057 9018 ft 245 kts 79°
2026-04-20 09:58 31.86432 -104.38096 9012 ft 245 kts 79°
2026-04-20 09:59 31.86750 -104.36125 9014 ft 245 kts 79°
2026-04-20 09:59 31.87068 -104.34158 9007 ft 245 kts 79°
2026-04-20 09:59 31.87386 -104.32188 9004 ft 245 kts 79°
2026-04-20 09:59 31.87702 -104.30221 9007 ft 245 kts 79°
2026-04-20 10:00 31.88020 -104.28253 9009 ft 245 kts 79°
2026-04-20 10:00 31.88335 -104.26286 9008 ft 245 kts 79°
2026-04-20 10:00 31.88652 -104.24320 9004 ft 245 kts 79°
2026-04-20 10:00 31.88968 -104.22350 9002 ft 245 kts 79°
2026-04-20 10:01 31.89278 -104.20407 9003 ft 245 kts 79°
2026-04-20 10:01 31.89594 -104.18440 9003 ft 245 kts 79°
2026-04-20 10:01 31.89908 -104.16473 9003 ft 245 kts 79°
2026-04-20 10:01 31.90222 -104.14506 9003 ft 245 kts 79°
2026-04-20 10:02 31.90536 -104.12539 9016 ft 245 kts 79°
2026-04-20 10:02 31.90850 -104.10572 9016 ft 245 kts 79°
2026-04-20 10:02 31.91163 -104.08605 9003 ft 245 kts 79°
2026-04-20 10:02 31.91477 -104.06638 9003 ft 244 kts 79°
2026-04-20 10:03 31.91789 -104.04672 9011 ft 244 kts 79°
2026-04-20 10:03 31.92099 -104.02706 9003 ft 244 kts 79°
2026-04-20 10:03 31.92413 -104.00741 9003 ft 244 kts 79°
2026-04-20 10:03 31.92725 -103.98771 9003 ft 244 kts 79°
2026-04-20 10:04 31.93035 -103.96805 9003 ft 244 kts 79°
2026-04-20 10:04 31.93347 -103.94840 9004 ft 244 kts 79°
2026-04-20 10:04 31.93658 -103.92868 9008 ft 245 kts 79°
2026-04-20 10:04 31.93969 -103.90900 9004 ft 245 kts 79°
2026-04-20 10:05 31.94275 -103.88955 9003 ft 245 kts 79°
2026-04-20 10:05 31.94585 -103.86986 9003 ft 245 kts 79°
2026-04-20 10:05 31.94895 -103.85016 9012 ft 245 kts 79°
2026-04-20 10:05 31.95204 -103.83047 9003 ft 245 kts 79°
2026-04-20 10:06 31.95514 -103.81077 9003 ft 245 kts 79°
2026-04-20 10:06 31.95822 -103.79108 9003 ft 245 kts 79°
2026-04-20 10:06 31.96131 -103.77139 9003 ft 245 kts 79°
2026-04-20 10:06 31.96439 -103.75168 9009 ft 245 kts 79°
2026-04-20 10:07 31.96748 -103.73194 9003 ft 245 kts 79°
2026-04-20 10:07 31.97056 -103.71224 9013 ft 245 kts 79°
2026-04-20 10:07 31.97363 -103.69249 9003 ft 245 kts 79°
2026-04-20 10:07 31.97671 -103.67275 9009 ft 245 kts 79°
2026-04-20 10:08 31.97977 -103.65304 9015 ft 245 kts 79°
2026-04-20 10:08 31.98284 -103.63332 9003 ft 245 kts 79°
2026-04-20 10:08 31.98590 -103.61361 9003 ft 245 kts 79°
2026-04-20 10:08 31.98897 -103.59387 9009 ft 245 kts 79°
2026-04-20 10:09 31.99197 -103.57445 9003 ft 245 kts 79°
2026-04-20 10:09 31.99504 -103.55469 9010 ft 245 kts 79°
2026-04-20 10:09 31.99808 -103.53496 9008 ft 245 kts 79°
2026-04-20 10:09 32.00113 -103.51524 9003 ft 245 kts 79°
2026-04-20 10:10 32.00419 -103.49548 9003 ft 245 kts 79°
2026-04-20 10:10 32.00723 -103.47575 9003 ft 245 kts 79°
2026-04-20 10:10 32.01026 -103.45601 9005 ft 245 kts 79°
2026-04-20 10:10 32.01331 -103.43627 9016 ft 245 kts 79°
2026-04-20 10:11 32.01633 -103.41654 9012 ft 245 kts 79°
2026-04-20 10:11 32.01937 -103.39678 9008 ft 245 kts 79°
2026-04-20 10:11 32.02240 -103.37705 9018 ft 245 kts 80°
2026-04-20 10:11 32.02541 -103.35731 9016 ft 245 kts 79°
2026-04-20 10:12 32.02844 -103.33757 9011 ft 245 kts 80°
2026-04-20 10:12 32.03144 -103.31785 9018 ft 245 kts 79°
2026-04-20 10:12 32.03447 -103.29812 9019 ft 245 kts 80°
2026-04-20 10:12 32.03747 -103.27840 9003 ft 244 kts 79°
2026-04-20 10:13 32.04048 -103.25864 9003 ft 244 kts 80°
2026-04-20 10:13 32.04348 -103.23893 9003 ft 244 kts 80°
2026-04-20 10:13 32.04644 -103.21943 9015 ft 244 kts 80°
2026-04-20 10:13 32.04944 -103.19971 9009 ft 244 kts 80°
2026-04-20 10:14 32.05244 -103.17994 9003 ft 244 kts 80°
2026-04-20 10:14 32.05542 -103.16022 9006 ft 244 kts 80°
2026-04-20 10:14 32.05841 -103.14046 9008 ft 244 kts 80°
2026-04-20 10:14 32.06140 -103.12073 9011 ft 244 kts 80°
2026-04-20 10:15 32.06437 -103.10100 9003 ft 245 kts 80°
2026-04-20 10:15 32.06736 -103.08127 9006 ft 245 kts 80°
2026-04-20 10:15 32.07033 -103.06149 9016 ft 245 kts 80°
2026-04-20 10:15 32.07331 -103.04175 9004 ft 245 kts 80°
2026-04-20 10:16 32.07627 -103.02200 9009 ft 245 kts 80°
2026-04-20 10:16 32.07925 -103.00224 9018 ft 245 kts 80°
2026-04-20 10:16 32.08217 -102.98269 9009 ft 245 kts 80°
2026-04-20 10:16 32.08514 -102.96297 9003 ft 245 kts 80°
2026-04-20 10:17 32.08810 -102.94317 9002 ft 245 kts 80°
2026-04-20 10:17 32.09107 -102.92336 9003 ft 245 kts 80°
2026-04-20 10:17 32.09401 -102.90359 9002 ft 245 kts 80°
2026-04-20 10:17 32.09696 -102.88383 9003 ft 245 kts 80°
2026-04-20 10:18 32.09992 -102.86402 9002 ft 245 kts 80°
2026-04-20 10:18 32.10286 -102.84425 9003 ft 245 kts 80°
2026-04-20 10:18 32.10580 -102.82448 9002 ft 245 kts 80°
2026-04-20 10:18 32.10873 -102.80471 9002 ft 245 kts 80°
2026-04-20 10:19 32.11167 -102.78494 9002 ft 245 kts 80°
2026-04-20 10:19 32.11460 -102.76517 9003 ft 245 kts 80°
2026-04-20 10:19 32.11753 -102.74535 9002 ft 245 kts 80°
2026-04-20 10:19 32.12046 -102.72558 9003 ft 245 kts 80°
2026-04-20 10:20 32.12338 -102.70580 9002 ft 245 kts 80°
2026-04-20 10:20 32.12630 -102.68603 9003 ft 245 kts 80°
2026-04-20 10:20 32.12921 -102.66625 9003 ft 245 kts 80°
2026-04-20 10:20 32.13213 -102.64647 9003 ft 245 kts 80°
2026-04-20 10:21 32.13499 -102.62698 9003 ft 245 kts 80°
2026-04-20 10:21 32.13791 -102.60715 9008 ft 245 kts 80°
2026-04-20 10:21 32.14080 -102.58736 9003 ft 245 kts 80°
2026-04-20 10:21 32.14371 -102.56760 9003 ft 245 kts 80°
2026-04-20 10:22 32.14661 -102.54777 9003 ft 245 kts 80°
2026-04-20 10:22 32.14950 -102.52798 9011 ft 245 kts 80°
2026-04-20 10:22 32.15239 -102.50823 9016 ft 245 kts 80°
2026-04-20 10:22 32.15528 -102.48840 9016 ft 245 kts 80°
2026-04-20 10:23 32.15816 -102.46866 9013 ft 245 kts 80°
2026-04-20 10:23 32.16104 -102.44883 9014 ft 245 kts 80°
2026-04-20 10:23 32.16393 -102.42905 9009 ft 245 kts 80°
2026-04-20 10:23 32.16680 -102.40922 9010 ft 245 kts 80°
2026-04-20 10:24 32.16968 -102.38943 9014 ft 245 kts 80°
2026-04-20 10:24 32.17255 -102.36960 9016 ft 245 kts 80°
2026-04-20 10:24 32.17541 -102.34981 9003 ft 245 kts 80°
2026-04-20 10:24 32.17829 -102.32998 9009 ft 245 kts 80°
2026-04-20 10:25 32.18113 -102.31019 9010 ft 245 kts 80°
2026-04-20 10:25 32.18397 -102.29060 9004 ft 245 kts 80°
2026-04-20 10:25 32.18681 -102.27081 9019 ft 245 kts 80°
2026-04-20 10:25 32.18967 -102.25101 9018 ft 245 kts 80°
2026-04-20 10:26 32.19251 -102.23122 9011 ft 244 kts 80°
2026-04-20 10:26 32.19535 -102.21144 9004 ft 245 kts 80°
2026-04-20 10:26 32.19819 -102.19164 9018 ft 245 kts 80°
2026-04-20 10:26 32.20103 -102.17185 9004 ft 245 kts 80°
2026-04-20 10:27 32.20386 -102.15207 9009 ft 244 kts 80°
2026-04-20 10:27 32.20670 -102.13219 9009 ft 244 kts 80°
2026-04-20 10:27 32.20952 -102.11245 9004 ft 244 kts 80°
2026-04-20 10:27 32.21234 -102.09266 9004 ft 244 kts 81°
2026-04-20 10:28 32.21516 -102.07287 9017 ft 244 kts 80°
2026-04-20 10:28 32.21798 -102.05303 9003 ft 244 kts 81°
2026-04-20 10:28 32.22080 -102.03320 9003 ft 244 kts 80°
2026-04-20 10:28 32.22357 -102.01369 9003 ft 244 kts 81°
2026-04-20 10:29 32.22644 -101.99393 9003 ft 244 kts 79°
2026-04-20 10:29 32.23006 -101.97436 9002 ft 244 kts 77°
2026-04-20 10:29 32.23381 -101.95481 9002 ft 244 kts 78°
2026-04-20 10:29 32.23731 -101.93519 9002 ft 244 kts 78°
2026-04-20 10:30 32.24078 -101.91555 9002 ft 244 kts 78°
2026-04-20 10:30 32.24429 -101.89588 9003 ft 244 kts 78°
2026-04-20 10:30 32.24780 -101.87625 9003 ft 244 kts 78°
2026-04-20 10:30 32.25130 -101.85661 9003 ft 244 kts 78°
2026-04-20 10:31 32.25481 -101.83698 9003 ft 244 kts 78°
2026-04-20 10:31 32.25830 -101.81734 9003 ft 244 kts 78°
2026-04-20 10:31 32.26178 -101.79770 9003 ft 244 kts 78°
2026-04-20 10:31 32.26525 -101.77827 9011 ft 244 kts 78°
2026-04-20 10:32 32.26873 -101.75863 9018 ft 244 kts 78°
2026-04-20 10:32 32.27222 -101.73899 9003 ft 244 kts 78°
2026-04-20 10:32 32.27571 -101.71931 9003 ft 244 kts 78°
2026-04-20 10:32 32.27918 -101.69966 9003 ft 244 kts 78°
2026-04-20 10:33 32.28266 -101.68001 9007 ft 244 kts 78°
2026-04-20 10:33 32.28612 -101.66038 9003 ft 244 kts 78°
2026-04-20 10:33 32.28960 -101.64073 9017 ft 244 kts 78°
2026-04-20 10:33 32.29306 -101.62108 9003 ft 244 kts 78°
2026-04-20 10:34 32.29652 -101.60143 9010 ft 244 kts 78°
2026-04-20 10:34 32.29998 -101.58178 9003 ft 244 kts 78°
2026-04-20 10:34 32.30344 -101.56209 9003 ft 244 kts 78°
2026-04-20 10:35 32.31036 -101.52270 9006 ft 244 kts 78°
2026-04-20 10:35 32.31381 -101.50305 9010 ft 244 kts 78°
2026-04-20 10:35 32.31725 -101.48339 9009 ft 244 kts 78°
2026-04-20 10:35 32.32069 -101.46372 9003 ft 244 kts 78°
2026-04-20 10:36 32.32413 -101.44409 9012 ft 244 kts 78°
2026-04-20 10:36 32.32756 -101.42439 9007 ft 244 kts 78°
2026-04-20 10:36 32.33101 -101.40469 9003 ft 244 kts 78°
2026-04-20 10:36 32.33438 -101.38532 9007 ft 244 kts 78°
2026-04-20 10:37 32.33780 -101.36565 9003 ft 244 kts 78°
2026-04-20 10:37 32.34123 -101.34598 9008 ft 244 kts 78°
2026-04-20 10:37 32.34466 -101.32628 9004 ft 244 kts 78°
2026-04-20 10:37 32.34807 -101.30661 9018 ft 244 kts 78°
2026-04-20 10:38 32.35148 -101.28695 9004 ft 244 kts 78°
2026-04-20 10:38 32.35489 -101.26727 9007 ft 244 kts 78°
2026-04-20 10:38 32.35830 -101.24761 9010 ft 244 kts 78°
2026-04-20 10:38 32.36170 -101.22793 9004 ft 244 kts 78°
2026-04-20 10:39 32.36511 -101.20827 9003 ft 244 kts 78°
2026-04-20 10:39 32.36849 -101.18860 9003 ft 244 kts 78°
2026-04-20 10:39 32.37189 -101.16894 9012 ft 244 kts 78°
2026-04-20 10:39 32.37530 -101.14924 9007 ft 244 kts 78°
2026-04-20 10:40 32.37753 -101.13624 9010 ft 244 kts 78°
2026-04-20 10:40 32.38089 -101.11657 9012 ft 244 kts 78°
2026-04-20 10:40 32.38430 -101.09682 9003 ft 244 kts 78°
2026-04-20 10:40 32.38768 -101.07715 9017 ft 244 kts 78°
2026-04-20 10:41 32.39105 -101.05748 9003 ft 244 kts 78°
2026-04-20 10:41 32.39444 -101.03772 9010 ft 244 kts 78°
2026-04-20 10:41 32.39776 -101.01828 9010 ft 244 kts 78°
2026-04-20 10:41 32.40114 -100.99860 9004 ft 244 kts 78°
2026-04-20 10:42 32.40449 -100.97887 9019 ft 244 kts 78°
2026-04-20 10:42 32.40786 -100.95919 9003 ft 244 kts 78°
2026-04-20 10:42 32.41123 -100.93942 9003 ft 244 kts 78°
2026-04-20 10:42 32.41459 -100.91973 9014 ft 244 kts 78°
2026-04-20 10:43 32.41794 -100.90003 9003 ft 244 kts 78°
2026-04-20 10:43 32.42129 -100.88030 9006 ft 244 kts 78°
2026-04-20 10:43 32.42464 -100.86060 9018 ft 244 kts 78°
2026-04-20 10:43 32.42798 -100.84091 9003 ft 244 kts 78°
2026-04-20 10:44 32.43128 -100.82146 9016 ft 244 kts 78°
2026-04-20 10:44 32.43461 -100.80176 9012 ft 244 kts 78°
2026-04-20 10:44 32.43795 -100.78206 9006 ft 244 kts 78°
2026-04-20 10:44 32.44128 -100.76232 9003 ft 244 kts 78°
2026-04-20 10:45 32.44461 -100.74262 9003 ft 244 kts 78°
2026-04-20 10:45 32.44794 -100.72291 9003 ft 244 kts 78°
2026-04-20 10:45 32.45125 -100.70318 9003 ft 244 kts 79°
2026-04-20 10:45 32.45458 -100.68347 9003 ft 244 kts 78°
2026-04-20 10:46 32.45790 -100.66371 9018 ft 244 kts 79°
2026-04-20 10:46 32.46121 -100.64403 9012 ft 244 kts 78°
2026-04-20 10:46 32.46452 -100.62426 9018 ft 244 kts 79°
2026-04-20 10:46 32.46784 -100.60450 9018 ft 244 kts 79°
2026-04-20 10:47 32.47113 -100.58480 9004 ft 244 kts 79°
2026-04-20 10:47 32.47445 -100.56502 9019 ft 244 kts 79°
2026-04-20 10:47 32.47775 -100.54529 9008 ft 244 kts 79°
2026-04-20 10:47 32.48104 -100.52555 9006 ft 244 kts 79°
2026-04-20 10:48 32.48430 -100.50602 9004 ft 244 kts 79°
2026-04-20 10:48 32.48759 -100.48627 9011 ft 244 kts 79°
2026-04-20 10:48 32.49089 -100.46649 9010 ft 244 kts 79°
2026-04-20 10:48 32.49417 -100.44675 9008 ft 244 kts 79°
2026-04-20 10:49 32.49745 -100.42696 9011 ft 244 kts 79°
2026-04-20 10:49 32.50073 -100.40721 9004 ft 244 kts 79°
2026-04-20 10:49 32.50402 -100.38743 9014 ft 244 kts 79°
2026-04-20 10:49 32.50729 -100.36764 9011 ft 244 kts 79°
2026-04-20 10:50 32.51056 -100.34790 9003 ft 244 kts 79°
2026-04-20 10:50 32.51382 -100.32816 9004 ft 244 kts 79°
2026-04-20 10:50 32.51709 -100.30838 9016 ft 244 kts 79°
2026-04-20 10:50 32.52030 -100.28893 9004 ft 244 kts 79°
2026-04-20 10:51 32.52355 -100.26920 9019 ft 244 kts 79°
2026-04-20 10:51 32.52680 -100.24947 9004 ft 244 kts 79°
2026-04-20 10:51 32.53005 -100.22974 9014 ft 244 kts 79°
2026-04-20 10:51 32.53329 -100.21001 9003 ft 244 kts 79°
2026-04-20 10:52 32.53653 -100.19024 9018 ft 244 kts 79°
2026-04-20 10:52 32.53976 -100.17052 9003 ft 244 kts 79°
2026-04-20 10:52 32.54300 -100.15079 9015 ft 244 kts 79°
2026-04-20 10:52 32.54623 -100.13101 9003 ft 244 kts 79°
2026-04-20 10:53 32.54946 -100.11129 9007 ft 244 kts 79°
2026-04-20 10:53 32.55268 -100.09155 9006 ft 244 kts 79°
2026-04-20 10:53 32.55590 -100.07181 9003 ft 244 kts 79°
2026-04-20 10:53 32.55911 -100.05208 9013 ft 244 kts 79°
2026-04-20 10:54 32.56234 -100.03231 9003 ft 244 kts 79°
2026-04-20 10:54 32.56550 -100.01283 9007 ft 244 kts 79°
2026-04-20 10:54 32.56871 -99.99310 9003 ft 244 kts 79°
2026-04-20 10:54 32.57190 -99.97336 9003 ft 244 kts 79°
2026-04-20 10:55 32.57512 -99.95359 9018 ft 244 kts 79°
2026-04-20 10:55 32.57831 -99.93386 9006 ft 244 kts 79°
2026-04-20 10:55 32.58151 -99.91407 9003 ft 244 kts 79°
2026-04-20 10:55 32.58471 -99.89433 9003 ft 244 kts 79°
2026-04-20 10:56 32.58789 -99.87460 9007 ft 244 kts 79°
2026-04-20 10:56 32.59107 -99.85486 9010 ft 244 kts 79°
2026-04-20 10:56 32.59426 -99.83512 9019 ft 244 kts 79°
2026-04-20 10:56 32.59743 -99.81538 9011 ft 244 kts 79°
2026-04-20 10:57 32.60060 -99.79564 9013 ft 244 kts 79°
2026-04-20 10:57 32.60378 -99.77590 9009 ft 244 kts 79°
2026-04-20 10:57 32.60695 -99.75611 9003 ft 244 kts 79°
2026-04-20 10:57 32.61012 -99.73636 9003 ft 244 kts 79°
2026-04-20 10:58 32.61323 -99.71691 9003 ft 244 kts 79°
2026-04-20 10:58 32.61640 -99.69716 9007 ft 244 kts 79°
2026-04-20 10:58 32.61955 -99.67740 9004 ft 244 kts 79°
2026-04-20 10:58 32.62271 -99.65762 9004 ft 244 kts 79°
2026-04-20 10:59 32.62585 -99.63783 9008 ft 244 kts 79°
2026-04-20 10:59 32.62901 -99.61805 9003 ft 244 kts 79°
2026-04-20 10:59 32.63216 -99.59826 9008 ft 244 kts 79°
2026-04-20 10:59 32.63530 -99.57848 9008 ft 244 kts 79°
2026-04-20 11:00 32.63844 -99.55869 9003 ft 244 kts 79°
2026-04-20 11:00 32.64159 -99.53887 9003 ft 244 kts 79°
2026-04-20 11:00 32.64473 -99.51907 9003 ft 244 kts 79°
2026-04-20 11:00 32.64785 -99.49925 9006 ft 244 kts 79°
2026-04-20 11:01 32.65099 -99.47945 9013 ft 244 kts 79°
2026-04-20 11:01 32.65412 -99.45965 9011 ft 244 kts 79°
2026-04-20 11:01 32.65725 -99.43984 9007 ft 244 kts 79°
2026-04-20 11:01 32.66037 -99.42000 9011 ft 244 kts 79°
2026-04-20 11:02 32.66348 -99.40020 9004 ft 244 kts 79°
2026-04-20 11:02 32.66656 -99.38064 9012 ft 244 kts 79°
2026-04-20 11:02 32.66968 -99.36084 9004 ft 244 kts 79°
2026-04-20 11:02 32.67278 -99.34103 9002 ft 244 kts 79°
2026-04-20 11:03 32.67589 -99.32120 9003 ft 244 kts 79°
2026-04-20 11:03 32.67899 -99.30140 9002 ft 244 kts 79°
2026-04-20 11:03 32.68209 -99.28160 9003 ft 244 kts 79°
2026-04-20 11:03 32.68518 -99.26178 9002 ft 244 kts 79°
2026-04-20 11:04 32.68828 -99.24199 9003 ft 244 kts 79°
2026-04-20 11:04 32.69137 -99.22216 9002 ft 244 kts 79°
2026-04-20 11:04 32.69445 -99.20237 9002 ft 244 kts 79°
2026-04-20 11:04 32.69753 -99.18255 9002 ft 244 kts 79°
2026-04-20 11:05 32.70061 -99.16277 9002 ft 244 kts 79°
2026-04-20 11:05 32.70367 -99.14299 9003 ft 244 kts 79°
2026-04-20 11:05 32.70675 -99.12320 9002 ft 244 kts 79°
2026-04-20 11:05 32.70980 -99.10342 9002 ft 244 kts 79°
2026-04-20 11:06 32.71288 -99.08364 9003 ft 244 kts 79°
2026-04-20 11:06 32.71593 -99.06381 9003 ft 244 kts 79°
2026-04-20 11:06 32.71898 -99.04406 9002 ft 244 kts 79°
2026-04-20 11:06 32.72205 -99.02422 9003 ft 244 kts 79°
2026-04-20 11:07 32.72509 -99.00443 9003 ft 244 kts 79°
2026-04-20 11:07 32.72815 -98.98463 9003 ft 244 kts 79°
2026-04-20 11:07 32.73119 -98.96483 9011 ft 244 kts 79°
2026-04-20 11:07 32.73422 -98.94503 9003 ft 244 kts 79°
2026-04-20 11:08 32.73722 -98.92548 9003 ft 244 kts 79°
2026-04-20 11:08 32.74026 -98.90563 9003 ft 244 kts 79°
2026-04-20 11:08 32.74331 -98.88579 9003 ft 244 kts 79°
2026-04-20 11:08 32.74633 -98.86599 9003 ft 244 kts 79°
2026-04-20 11:09 32.74936 -98.84619 9003 ft 244 kts 79°
2026-04-20 11:09 32.75237 -98.82639 9003 ft 244 kts 79°
2026-04-20 11:09 32.75540 -98.80654 9003 ft 244 kts 79°
2026-04-20 11:09 32.75843 -98.78668 9006 ft 244 kts 79°
2026-04-20 11:10 32.76139 -98.76712 9003 ft 244 kts 80°
2026-04-20 11:10 32.76441 -98.74726 9003 ft 244 kts 79°
2026-04-20 11:10 32.76741 -98.72749 9008 ft 244 kts 79°
2026-04-20 11:10 32.77042 -98.70767 9008 ft 244 kts 80°
2026-04-20 11:11 32.77341 -98.68787 9003 ft 244 kts 79°
2026-04-20 11:11 32.77641 -98.66804 9011 ft 244 kts 80°
2026-04-20 11:11 32.77941 -98.64817 9010 ft 244 kts 80°
2026-04-20 11:11 32.78241 -98.62833 9004 ft 244 kts 80°
2026-04-20 11:12 32.78541 -98.60844 9004 ft 244 kts 80°
2026-04-20 11:12 32.78840 -98.58859 9003 ft 244 kts 80°
2026-04-20 11:12 32.79138 -98.56873 9017 ft 244 kts 80°
2026-04-20 11:12 32.79435 -98.54889 9013 ft 244 kts 80°
2026-04-20 11:13 32.79736 -98.52901 9004 ft 244 kts 80°
2026-04-20 11:13 32.80031 -98.50919 9003 ft 244 kts 80°
2026-04-20 11:13 32.80329 -98.48934 9003 ft 244 kts 80°
2026-04-20 11:13 32.80622 -98.46973 9012 ft 244 kts 80°
2026-04-20 11:14 32.80920 -98.44984 9016 ft 244 kts 80°
2026-04-20 11:14 32.81219 -98.42975 9003 ft 244 kts 80°
2026-04-20 11:14 32.81510 -98.41015 9010 ft 244 kts 80°
2026-04-20 11:14 32.81807 -98.39032 9003 ft 244 kts 80°
2026-04-20 11:15 32.82101 -98.37048 9017 ft 244 kts 80°
2026-04-20 11:15 32.82396 -98.35061 9008 ft 244 kts 80°
2026-04-20 11:15 32.82688 -98.33095 8997 ft 237 kts 80°
2026-04-20 11:15 32.82970 -98.31198 8992 ft 229 kts 80°
2026-04-20 11:16 32.83241 -98.29357 8988 ft 223 kts 80°
2026-04-20 11:16 32.83508 -98.27559 8989 ft 219 kts 80°
2026-04-20 11:16 32.83769 -98.25786 8909 ft 219 kts 80°
2026-04-20 11:16 32.84034 -98.23996 8783 ft 221 kts 80°
2026-04-20 11:17 32.84299 -98.22190 8661 ft 222 kts 80°
2026-04-20 11:17 32.84568 -98.20384 8540 ft 223 kts 80°
2026-04-20 11:17 32.84833 -98.18567 8418 ft 223 kts 80°
2026-04-20 11:17 32.85101 -98.16748 8295 ft 224 kts 80°
2026-04-20 11:18 32.85369 -98.14926 8172 ft 224 kts 80°
2026-04-20 11:18 32.85637 -98.13098 8049 ft 224 kts 80°
2026-04-20 11:18 32.85904 -98.11274 7927 ft 224 kts 80°
2026-04-20 11:18 32.86167 -98.09473 7801 ft 224 kts 80°
2026-04-20 11:19 32.86434 -98.07650 7676 ft 224 kts 80°
2026-04-20 11:19 32.86701 -98.05829 7553 ft 223 kts 80°
2026-04-20 11:19 32.86965 -98.04009 7419 ft 223 kts 80°
2026-04-20 11:19 32.87230 -98.02192 7303 ft 223 kts 80°
2026-04-20 11:20 32.87495 -98.00374 7179 ft 223 kts 80°
2026-04-20 11:20 32.87760 -97.98561 7052 ft 222 kts 80°
2026-04-20 11:20 32.88021 -97.96750 6928 ft 222 kts 80°
2026-04-20 11:20 32.88285 -97.94941 6804 ft 222 kts 80°
2026-04-20 11:21 32.88546 -97.93133 6678 ft 221 kts 80°
2026-04-20 11:21 32.88809 -97.91326 6554 ft 221 kts 80°
2026-04-20 11:21 32.89069 -97.89524 6425 ft 221 kts 80°
2026-04-20 11:21 32.89330 -97.87725 6303 ft 221 kts 80°
2026-04-20 11:22 32.89588 -97.85927 6182 ft 220 kts 80°
2026-04-20 11:22 32.89847 -97.84131 6054 ft 220 kts 80°
2026-04-20 11:22 32.90104 -97.82357 5931 ft 220 kts 80°
2026-04-20 11:22 32.90361 -97.80565 5806 ft 220 kts 80°
2026-04-20 11:23 32.90619 -97.78771 5679 ft 219 kts 80°
2026-04-20 11:23 32.90876 -97.76983 5557 ft 219 kts 80°
2026-04-20 11:23 32.91133 -97.75198 5428 ft 219 kts 80°
2026-04-20 11:23 32.91388 -97.73415 5300 ft 218 kts 80°
2026-04-20 11:24 32.91644 -97.71631 5184 ft 218 kts 80°
2026-04-20 11:24 32.91898 -97.69848 5055 ft 218 kts 80°
2026-04-20 11:24 32.92152 -97.68075 4931 ft 218 kts 80°
2026-04-20 11:24 32.92405 -97.66298 4806 ft 217 kts 80°
2026-04-20 11:25 32.92658 -97.64528 4679 ft 217 kts 80°
2026-04-20 11:25 32.92909 -97.62759 4555 ft 217 kts 80°
2026-04-20 11:25 32.93160 -97.60991 4432 ft 216 kts 80°
2026-04-20 11:25 32.93411 -97.59231 4306 ft 216 kts 80°
2026-04-20 11:26 32.93662 -97.57468 4181 ft 216 kts 80°
2026-04-20 11:26 32.93909 -97.55730 4058 ft 215 kts 80°
2026-04-20 11:26 32.94158 -97.53970 3933 ft 215 kts 80°
2026-04-20 11:26 32.94405 -97.52216 3808 ft 215 kts 80°
2026-04-20 11:27 32.94653 -97.50466 3683 ft 214 kts 81°
2026-04-20 11:27 32.94900 -97.48716 3554 ft 214 kts 80°
2026-04-20 11:27 32.95147 -97.46969 3432 ft 214 kts 80°
2026-04-20 11:27 32.95393 -97.45223 3307 ft 213 kts 81°
2026-04-20 11:28 32.95639 -97.43482 3183 ft 213 kts 80°
2026-04-20 11:28 32.95883 -97.41742 3055 ft 213 kts 81°
2026-04-20 11:28 32.96047 -97.40569 2972 ft 212 kts 80°
2026-04-20 11:28 32.96288 -97.38859 2849 ft 212 kts 81°
2026-04-20 11:29 32.96531 -97.37127 2729 ft 212 kts 81°
2026-04-20 11:29 32.96773 -97.35396 2600 ft 212 kts 81°
2026-04-20 11:29 32.97015 -97.33669 2504 ft 210 kts 80°
2026-04-20 11:29 32.97252 -97.31980 2500 ft 205 kts 81°
2026-04-20 11:30 32.97482 -97.30323 2491 ft 201 kts 81°
2026-04-20 11:30 32.97711 -97.28691 2489 ft 198 kts 81°
2026-04-20 11:30 32.97935 -97.27079 2493 ft 196 kts 81°
2026-04-20 11:30 32.98157 -97.25482 2493 ft 195 kts 81°
2026-04-20 11:31 32.98379 -97.23892 2493 ft 194 kts 81°
2026-04-20 11:31 32.98599 -97.22312 2492 ft 193 kts 81°
2026-04-20 11:31 32.98819 -97.20731 2491 ft 193 kts 81°
2026-04-20 11:31 32.99037 -97.19157 2490 ft 193 kts 81°
2026-04-20 11:32 32.99255 -97.17583 2494 ft 192 kts 81°
2026-04-20 11:32 32.99472 -97.16014 2494 ft 192 kts 81°
2026-04-20 11:32 32.99689 -97.14443 2492 ft 192 kts 81°
2026-04-20 11:32 32.99905 -97.12874 2492 ft 192 kts 81°
2026-04-20 11:33 33.00121 -97.11327 2491 ft 192 kts 81°
2026-04-20 11:33 33.00335 -97.09759 2492 ft 192 kts 81°
2026-04-20 11:33 33.00551 -97.08192 2494 ft 192 kts 81°
2026-04-20 11:33 33.00770 -97.06622 2494 ft 192 kts 81°
2026-04-20 11:34 33.00982 -97.05051 2493 ft 191 kts 81°
2026-04-20 11:34 33.00885 -97.03491 2485 ft 191 kts 108°
2026-04-20 11:34 33.00133 -97.02220 2487 ft 190 kts 140°
2026-04-20 11:34 32.99053 -97.01412 2503 ft 177 kts 139°
2026-04-20 11:35 32.98290 -97.00328 2507 ft 167 kts 132°
2026-04-20 11:35 32.97486 -96.99375 2505 ft 163 kts 135°
2026-04-20 11:35 32.96705 -96.98449 2486 ft 154 kts 136°
2026-04-20 11:35 32.95952 -96.97589 2489 ft 147 kts 135°
2026-04-20 11:36 32.95241 -96.96741 2488 ft 142 kts 136°
2026-04-20 11:36 32.94533 -96.95938 2494 ft 139 kts 135°
2026-04-20 11:36 32.93854 -96.95122 2491 ft 138 kts 135°
2026-04-20 11:36 32.93159 -96.94339 2491 ft 137 kts 136°
2026-04-20 11:37 32.92473 -96.93515 2367 ft 143 kts 135°
2026-04-20 11:37 32.91037 -96.91865 1999 ft 143 kts 134°
2026-04-20 11:37 32.90336 -96.91035 1798 ft 140 kts 136°
2026-04-20 11:38 32.89668 -96.90265 1610 ft 128 kts 135°
2026-04-20 11:38 32.89049 -96.89545 1443 ft 122 kts 136°
2026-04-20 11:38 32.88458 -96.88852 1288 ft 116 kts 135°
2026-04-20 11:38 32.87890 -96.88191 1136 ft 113 kts 135°
2026-04-20 11:39 32.87337 -96.87546 989 ft 110 kts 135°
2026-04-20 11:39 32.86793 -96.86915 840 ft 108 kts 135°
2026-04-20 11:39 32.86271 -96.86306 698 ft 106 kts 136°
2026-04-20 11:39 32.85752 -96.85698 576 ft 103 kts 135°
2026-04-20 11:40 32.85248 -96.85125 491 ft 92 kts 137°
2026-04-20 11:40 32.84916 -96.84752 491 ft 20 kts 129°
2026-04-20 11:40 32.84848 -96.84661 493 ft 13 kts 134°
2026-04-20 11:40 32.84790 -96.84593 489 ft 12 kts 137°
2026-04-20 11:41 32.84714 -96.84508 490 ft 18 kts 136°
2026-04-20 11:41 32.84614 -96.84389 498 ft 22 kts 134°
2026-04-20 11:41 32.84497 -96.84335 495 ft 18 kts 202°
2026-04-20 11:41 32.84400 -96.84424 494 ft 17 kts 249°
2026-04-20 11:42 32.84438 -96.84520 486 ft 14 kts 332°
2026-04-20 11:42 32.84530 -96.84568 490 ft 15 kts 328°
2026-04-20 11:42 32.84584 -96.84661 493 ft 14 kts 293°
2026-04-20 11:42 32.84615 -96.84747 491 ft 0 kts 297°